EW2875 Weather Reports


Display with metric or nautical units.
time (UTC)temp
F
wind
direction
speed
MPH
gust
MPH
rain 1hr
in
rain 24hr
in
rain mn
in
humidity
%
barometer
mb
20260905043004 51 277 5.0 19.0 0.00 0.06 0.01 92 1008.1
20260905041504 51 274 8.0 21.0 0.00 0.06 0.01 92 1007.8
20260905040004 51 276 6.0 15.0 0.00 0.06 0.01 92 1007.6
20260905034504 51 275 7.0 20.0 0.00 0.06 0.01 93 1007.4
20260905033004 51 275 8.0 23.0 0.00 0.06 0.01 93 1007.1
20260905031504 51 271 5.0 14.0 0.00 0.06 0.01 93 1007.1
20260905030025 52 271 7.0 24.0 0.00 0.06 0.01 93 1006.9
20260905024504 52 270 7.0 14.0 0.00 0.06 0.01 93 1006.6
20260905023004 52 270 8.0 24.0 0.00 0.06 0.01 93 1006.3
20260905021504 52 268 5.0 23.0 0.00 0.06 0.01 92 1006.1
20260905020004 52 267 7.0 22.0 0.00 0.06 0.01 92 1005.9
20260905014504 52 265 8.0 23.0 0.00 0.06 0.01 91 1005.7
20260905013004 52 270 6.0 18.0 0.00 0.06 0.01 91 1005.5
20260905011504 52 272 6.0 16.0 0.01 0.06 0.01 91 1005.2
20260905010004 52 275 8.0 29.0 0.01 0.06 0.01 91 1004.9
20260905004504 52 271 6.0 18.0 0.01 0.06 0.01 91 1004.8
20260905003004 52 270 7.0 21.0 0.01 0.06 0.01 90 1004.5
20260905001504 52 266 12.0 30.0 0.00 0.05 0.00 88 1004.0
20260905000004 53 261 11.0 31.0 0.00 0.05 0.00 84 1003.7
20260904234504 53 261 9.0 27.0 0.00 0.05 0.00 84 1003.5
20260904233004 53 258 10.0 26.0 0.00 0.05 0.00 85 1003.6
20260904231504 53 257 9.0 25.0 0.00 0.05 0.00 85 1003.6
20260904230004 53 260 7.0 24.0 0.00 0.05 0.00 85 1003.6
20260904224504 53 267 8.0 21.0 0.00 0.05 0.05 85 1003.4
20260904223004 53 267 5.0 14.0 0.00 0.05 0.05 86 1003.2
20260904221504 53 268 7.0 24.0 0.00 0.05 0.05 85 1002.8
20260904220004 54 267 5.0 18.0 0.00 0.05 0.05 84 1002.8
20260904214504 54 262 5.0 19.0 0.00 0.05 0.05 84 1002.8
20260904213004 53 262 7.0 20.0 0.00 0.05 0.05 84 1002.8
20260904211504 53 260 6.0 19.0 0.00 0.05 0.05 83 1002.6
20260904210004 53 262 6.0 19.0 0.00 0.05 0.05 83 1002.5
20260904204504 54 264 9.0 26.0 0.00 0.05 0.05 83 1002.4
20260904203004 54 265 8.0 33.0 0.00 0.05 0.05 83 1002.0
20260904201503 54 261 10.0 33.0 0.00 0.05 0.05 83 1001.8
20260904200004 54 264 10.0 27.0 0.00 0.05 0.05 83 1001.9
20260904194525 54 261 7.0 22.0 0.00 0.05 0.05 83 1001.8
20260904193004 54 263 9.0 22.0 0.00 0.05 0.05 82 1001.7
20260904191524 54 271 9.0 24.0 0.00 0.05 0.05 81 1001.2
20260904190004 55 276 9.0 25.0 0.00 0.05 0.05 81 1001.1
20260904184503 56 278 9.0 33.0 0.00 0.05 0.05 79 1001.0
20260904183024 56 274 7.0 23.0 0.00 0.05 0.05 79 1000.9
20260904181503 57 272 10.0 27.0 0.00 0.05 0.05 77 1000.4
20260904180004 57 275 12.0 35.0 0.00 0.05 0.05 76 1000.0
20260904174525 58 278 14.0 36.0 0.00 0.05 0.05 75 1000.0
20260904173004 58 279 10.0 29.0 0.00 0.05 0.05 76 999.7
20260904171504 58 279 12.0 37.0 0.00 0.05 0.05 74 999.6
20260904170004 58 278 10.0 33.0 0.00 0.05 0.05 74 999.2
20260904164504 58 275 13.0 32.0 0.00 0.05 0.05 75 999.0
20260904163003 58 270 10.0 27.0 0.00 0.05 0.05 76 998.7
20260904161504 59 277 10.0 30.0 0.00 0.05 0.05 74 998.5
20260904160003 59 272 13.0 32.0 0.00 0.05 0.05 73 998.3
20260904154504 60 267 12.0 32.0 0.00 0.05 0.05 72 998.0
20260904153003 60 270 10.0 24.0 0.00 0.05 0.05 72 997.9
20260904151503 60 268 13.0 35.0 0.00 0.05 0.05 73 997.6
20260904150025 60 263 14.0 38.0 0.00 0.05 0.05 72 997.5
20260904144503 62 266 11.0 33.0 0.00 0.05 0.05 68 997.3
20260904143003 61 266 11.0 32.0 0.00 0.05 0.05 68 997.1
20260904141503 62 265 10.0 33.0 0.00 0.05 0.05 70 996.9
20260904140004 62 265 11.0 29.0 0.00 0.05 0.05 70 996.6
20260904134503 62 266 12.0 29.0 0.00 0.05 0.05 70 996.4
20260904133003 62 266 13.0 32.0 0.00 0.05 0.05 72 996.5
20260904131503 62 263 14.0 37.0 0.00 0.05 0.05 69 996.4
20260904130003 61 263 9.0 23.0 0.00 0.05 0.05 73 996.3
20260904124503 61 261 10.0 27.0 0.00 0.05 0.05 73 996.1
20260904123003 60 264 11.0 32.0 0.01 0.05 0.05 73 995.9
20260904121503 61 267 8.0 22.0 0.01 0.05 0.05 74 996.0
20260904120024 60 269 9.0 22.0 0.01 0.05 0.05 75 995.9
20260904114524 59 267 9.0 29.0 0.01 0.05 0.05 78 995.9
20260904113003 59 265 8.0 29.0 0.04 0.04 0.04 82 995.5
20260904111524 58 260 13.0 29.0 0.04 0.04 0.04 87 995.4
20260904110003 56 247 12.0 29.0 0.04 0.04 0.04 91 995.4
20260904104503 57 236 17.0 30.0 0.04 0.04 0.04 90 995.2
20260904103003 60 237 18.0 27.0 0.00 0.00 0.00 82 994.9
20260904101503 61 227 16.0 29.0 0.00 0.00 0.00 77 994.9
20260904100003 61 227 17.0 30.0 0.00 0.00 0.00 79 994.7
20260904094503 61 232 15.0 30.0 0.00 0.00 0.00 81 994.8
20260904093003 59 227 14.0 27.0 0.00 0.00 0.00 81 994.8
20260904091503 60 222 13.0 30.0 0.00 0.00 0.00 80 994.8
20260904090003 60 215 14.0 30.0 0.00 0.00 0.00 80 994.9
20260904084524 59 209 13.0 25.0 0.00 0.00 0.00 84 995.0
20260904083003 58 203 14.0 25.0 0.00 0.00 0.00 85 995.0
20260904081503 56 190 12.0 19.0 0.00 0.00 0.00 85 995.1
20260904080003 56 182 13.0 18.0 0.00 0.00 0.00 86 995.2
20260904074524 56 180 15.0 22.0 0.00 0.00 0.00 87 995.2
20260904073003 53 181 14.0 22.0 0.00 0.00 0.00 88 995.5
20260904071503 52 181 14.0 20.0 0.00 0.00 0.00 88 995.5
20260904070003 52 179 14.0 19.0 0.00 0.00 0.00 88 995.8
20260904064503 52 178 12.0 15.0 0.00 0.00 0.00 89 995.8
20260904063024 52 186 13.0 18.0 0.00 0.00 0.00 88 996.0
20260904061503 52 188 14.0 23.0 0.00 0.00 0.00 89 996.0
20260904060003 51 183 14.0 21.0 0.00 0.00 0.00 90 996.2
20260904054503 51 181 13.0 20.0 0.00 0.00 0.00 90 996.5
20260904053003 51 182 12.0 16.0 0.00 0.00 0.00 89 996.6
20260904051524 50 181 9.0 15.0 0.00 0.00 0.00 91 996.6
20260904050024 50 180 9.0 13.0 0.00 0.00 0.00 92 996.7
20260904044503 50 174 11.0 14.0 0.00 0.00 0.00 94 996.9